User: anonymous   Login
Location: Dittelbrunn
(50.0738°N, 10.2196°E)
Time: 22:27:36
(UTC+00:00)
Language:

NOSS 3-1 (C) - Orbit

View from above orbital plane
View from above orbital plane
View from above satellite
View from above satellite

Ground track
Ground track

The orbit data is extracted from the following two-line orbital elements,

1 26907U 01040C   20328.19038462 0.00000000  00000-0  00000-0 0    00
2 26907  63.4149  57.6917 0485094   1.7601 358.2399 13.41321993    08
Epoch (UTC): 23 November 2020 04:34:09
Eccentricity: 0.0485094
inclination: 63.4149°
perigee height: 741 km
apogee height: 1467 km
right ascension of ascending node: 57.6917°
argument of perigee: 1.7601°
revolutions per day: 13.41321993
mean anomaly at epoch: 358.2399°
orbit number at epoch: 0

The dashed part of the orbit path shows where the satellite is in the earth's shadow,  

DLR